GFSGBSN_925_thetae_000.txt.gz
Theta_e
311 310 312 314 315 316 315 315 316 314 312 312 312 312 312 313 314 313 312 311 310 310 311 311 313 314 318 324 320 318 318 318 318 321 321 321 321 321 319 319 318 318 317 317 316 316 317
311 311 314 315 315 315 314 314 313 312 312 313 313 313 313 313 313 312 311 311 310 311 311 312 314 317 322 323 318 318 318 319 319 320 319 320 320 320 318 318 318 318 317 317 317 318 318
310 313 314 316 315 314 314 313 312 313 313 314 314 314 313 313 312 312 311 310 311 311 312 313 315 317 324 322 317 317 318 318 319 320 321 320 320 319 319 319 319 319 318 319 319 320 319
310 313 314 316 315 315 314 312 312 313 313 314 313 313 312 311 311 311 310 311 311 312 313 316 317 320 323 318 317 317 317 318 318 320 320 319 319 321 322 320 318 318 320 320 320 321 321
311 312 314 316 315 314 314 313 313 313 313 314 314 312 311 310 310 310 311 312 313 314 317 319 318 326 323 316 317 317 317 318 318 320 319 319 320 319 319 318 319 320 320 321 322 321 322
310 311 314 316 315 314 314 313 313 313 313 315 316 315 314 313 313 313 314 314 316 317 317 318 321 325 318 318 317 316 317 318 320 320 320 320 321 320 320 321 321 320 320 319 318 321 318
309 310 314 316 315 314 314 313 313 312 313 315 316 316 316 315 315 314 315 316 322 322 322 321 318 319 316 315 316 318 317 319 321 321 322 320 321 323 321 320 319 319 319 319 321 321 319
308 309 313 315 315 314 314 314 313 313 313 315 316 316 316 316 316 316 319 327 325 322 319 318 319 318 318 319 318 318 318 320 320 321 320 318 321 320 320 319 319 319 319 320 321 320 319
307 308 312 315 314 314 314 314 314 314 313 314 316 319 320 318 317 318 325 327 326 326 320 319 319 318 319 320 320 319 320 319 319 320 318 323 320 319 319 321 321 321 321 324 322 322 321
307 307 311 315 314 314 314 314 314 314 313 313 315 317 320 320 320 324 326 325 327 325 321 316 319 319 319 320 319 319 319 320 319 319 320 321 320 321 321 323 322 323 322 321 321 321 322
307 307 309 314 314 314 313 314 314 314 313 313 314 315 317 319 323 323 326 327 328 329 335 319 319 319 318 321 320 320 320 320 319 320 321 322 322 323 323 322 321 324 322 321 322 322 322
307 307 308 312 314 314 314 314 314 314 314 313 314 317 318 319 329 326 326 326 328 342 332 319 319 320 320 320 321 321 320 321 323 321 322 321 320 322 322 321 321 322 324 324 324 325 333
307 307 308 311 313 314 313 314 314 314 314 313 315 319 321 327 328 323 321 328 334 334 320 320 320 321 321 321 322 322 322 323 324 324 324 323 322 322 321 324 324 322 325 332 335 338 334
307 307 308 311 312 313 313 314 314 314 314 314 315 319 325 329 328 322 329 328 332 321 320 319 320 321 322 322 322 323 323 323 322 325 323 324 327 322 321 322 322 324 323 334 332 335 329
307 307 308 310 311 313 313 314 314 315 314 314 316 324 325 324 321 327 329 348 332 320 321 320 320 321 322 322 323 323 323 321 320 322 325 325 325 321 320 320 320 324 324 320 326 328 329
307 307 307 309 310 312 313 315 316 317 316 315 321 321 323 319 318 330 335 334 324 321 319 320 321 322 322 321 322 323 323 321 321 320 319 320 326 319 319 321 322 322 320 325 329 331 326
308 307 307 308 309 312 312 316 317 318 317 317 325 321 328 318 319 325 338 329 321 320 322 320 322 321 323 322 323 324 323 321 321 321 320 320 323 321 321 322 323 323 324 321 319 324 326
308 307 307 307 309 311 312 316 317 318 318 320 325 324 327 318 322 325 331 324 317 321 322 324 323 323 324 323 324 324 324 324 320 320 322 318 321 330 320 319 320 320 321 320 329 324 330
308 308 307 306 308 310 312 315 317 318 318 324 324 328 326 326 332 344 325 323 322 321 321 322 324 324 324 325 325 324 325 322 321 322 323 320 326 329 323 324 321 320 320 318 322 322 322
308 308 307 306 308 310 311 313 317 319 320 321 327 331 322 323 329 327 326 324 324 323 323 323 324 323 324 325 324 325 324 322 321 320 316 319 320 322 325 319 317 318 317 317 317 327 324
308 308 307 306 307 309 310 312 316 317 319 318 328 326 321 336 332 325 324 323 324 323 322 322 322 323 324 325 325 324 324 321 320 316 320 321 324 321 319 317 316 316 316 316 317 318 320
309 309 308 307 307 309 310 312 316 316 315 322 327 326 326 327 326 325 322 324 323 322 323 322 323 323 323 326 322 323 321 319 321 320 320 320 328 322 322 317 316 317 316 316 316 316 317
309 309 308 307 307 309 310 312 316 316 317 324 323 325 326 322 326 328 328 324 323 324 323 321 322 324 326 323 322 321 321 320 319 321 324 322 325 323 326 320 320 325 322 318 317 316 317
309 309 308 307 308 309 310 312 316 316 320 326 325 323 332 333 331 328 325 323 323 323 322 321 321 325 321 319 318 319 321 321 320 320 322 318 321 323 324 321 328 320 317 317 317 316 316
309 309 309 308 308 309 310 312 316 317 319 323 320 327 327 323 330 325 323 322 323 321 323 323 322 321 321 321 327 320 320 316 319 318 321 321 326 319 325 321 319 318 317 317 317 317 316
309 310 309 309 309 309 310 312 314 319 318 322 315 321 325 330 332 322 322 323 328 328 326 322 321 321 321 331 324 322 327 322 322 318 317 318 320 326 320 321 321 320 317 316 316 319 319
310 310 310 309 309 309 310 311 313 317 319 324 320 317 329 331 323 323 325 327 324 326 326 324 324 322 322 323 318 333 327 319 322 323 319 317 319 321 321 320 320 316 316 315 319 321 318
310 310 310 310 310 309 310 311 313 314 319 324 322 316 328 329 323 322 322 325 322 325 330 325 325 327 329 318 323 328 325 325 323 320 319 319 321 318 320 320 320 316 315 319 320 318 316
311 311 310 310 310 310 310 311 313 314 316 321 326 317 323 327 324 323 321 321 321 321 325 325 323 325 327 327 324 327 319 316 324 324 316 321 323 325 321 322 319 316 316 316 315 316 313

GFSGBSN_925_thetae_003.txt.gz
Theta_e
311 311 311 312 314 314 315 316 314 314 313 312 312 312 312 312 312 313 312 310 309 310 310 310 310 311 318 325 321 316 318 318 317 317 320 321 320 317 316 315 316 314 313 313 313 314 314
311 311 311 313 314 314 315 314 313 312 312 312 312 313 313 313 312 312 311 310 310 310 310 310 311 314 318 322 319 318 318 318 318 319 322 321 318 318 317 315 314 315 313 312 312 314 316
310 311 312 314 315 314 314 313 312 312 313 313 313 313 313 313 312 311 311 311 310 310 310 310 313 317 324 325 319 317 317 318 318 319 318 319 319 317 317 317 317 315 314 313 314 316 316
310 311 312 314 315 314 314 313 312 313 313 313 313 313 313 312 312 311 311 311 310 310 311 313 316 319 323 318 317 316 317 318 318 319 320 320 320 318 319 316 316 316 315 315 316 317 317
310 311 312 315 315 314 314 313 312 313 314 314 314 312 311 311 311 311 310 310 311 312 313 316 317 323 323 317 315 317 317 317 318 320 319 319 319 318 317 314 315 316 315 318 318 317 318
310 310 312 314 315 314 314 313 313 313 313 314 315 314 311 310 310 310 311 312 315 315 318 317 318 322 324 318 317 317 317 317 319 319 319 318 317 316 314 315 318 318 317 318 318 317 317
310 310 311 314 315 314 314 313 313 313 313 315 316 316 314 313 312 312 314 317 318 318 320 319 320 322 315 315 316 316 318 317 319 320 319 319 318 318 318 318 318 318 317 318 318 318 319
309 309 310 314 315 314 314 313 313 313 312 314 315 316 315 314 314 314 317 324 324 325 320 321 318 317 318 317 317 317 318 319 319 319 318 316 318 318 318 319 319 318 319 321 318 319 317
308 308 309 314 315 314 313 314 313 314 313 312 315 317 316 316 316 316 316 323 326 321 318 319 318 318 319 319 318 318 318 319 318 318 319 319 319 319 319 320 321 320 321 320 321 319 317
308 307 308 313 314 314 313 313 313 314 313 312 314 319 320 317 317 319 324 325 325 327 317 317 318 317 318 319 319 318 318 318 319 320 319 319 319 321 321 321 320 324 322 321 320 319 318
307 306 308 313 314 314 313 313 314 313 313 312 314 315 320 318 320 327 325 326 323 327 321 318 318 318 318 319 318 319 320 320 320 318 321 321 321 322 322 321 320 323 321 321 321 320 320
307 307 308 312 314 314 314 314 314 313 313 313 314 316 317 320 324 327 323 321 320 324 328 319 318 320 318 319 320 319 319 321 322 320 319 320 319 320 320 321 320 320 322 323 322 322 323
307 307 308 311 313 314 313 314 314 313 313 313 314 317 319 328 329 326 319 324 324 324 321 319 320 320 320 320 320 321 322 321 322 323 322 321 321 320 320 322 322 321 322 324 325 323 323
307 307 307 310 312 313 313 314 314 313 313 313 315 320 328 326 326 323 327 325 328 325 320 319 320 321 322 321 321 322 321 320 318 322 324 324 324 319 319 320 320 322 323 321 329 322 324
307 307 307 309 311 313 313 314 314 313 314 314 316 323 328 318 317 321 326 327 328 321 319 319 320 322 321 322 322 322 319 319 318 318 323 326 323 320 318 318 320 324 319 318 322 322 320
307 306 307 308 310 312 312 314 315 315 314 315 321 325 328 322 315 324 326 330 326 320 319 319 320 321 321 320 322 322 322 321 321 319 317 319 323 318 318 320 321 319 318 321 318 322 320
307 306 306 307 309 312 312 315 317 317 315 316 324 319 327 321 316 321 325 329 321 321 322 322 322 320 323 321 322 323 322 321 320 320 317 320 323 320 320 320 321 321 323 320 319 317 318
308 307 306 307 308 311 312 316 317 317 316 318 326 323 325 322 318 321 326 329 317 321 322 323 323 323 323 323 325 325 325 322 320 321 320 317 319 316 320 319 319 319 321 321 316 323 316
308 307 306 306 308 310 311 315 317 318 318 322 323 326 326 329 317 319 328 323 321 321 321 322 323 323 323 325 324 326 324 322 321 320 320 319 319 318 323 322 320 319 319 322 321 311 315
308 308 307 306 308 309 311 313 317 318 318 322 326 320 323 322 325 330 326 324 324 322 322 323 323 323 324 324 323 325 324 323 319 317 316 319 320 316 317 318 316 316 317 317 320 315 317
308 308 307 306 308 309 310 312 317 318 319 321 325 323 317 315 320 325 325 324 324 323 322 322 322 323 324 323 325 325 323 321 320 315 319 319 321 319 317 316 316 316 316 315 316 315 315
308 308 307 307 308 309 310 312 317 316 317 319 328 325 321 319 319 325 322 324 324 323 322 323 322 323 323 320 322 323 322 321 322 319 321 320 319 316 318 319 317 316 315 315 314 315 315
309 309 308 307 308 309 310 312 317 316 315 324 325 325 324 325 322 323 322 324 324 322 321 322 322 321 319 322 320 319 318 318 321 321 320 315 310 312 318 317 315 314 316 319 317 316 316
309 309 308 308 308 309 310 312 317 316 321 326 325 327 319 317 322 324 326 324 323 321 321 323 322 319 320 314 311 310 311 314 319 320 316 311 313 308 309 309 313 319 316 316 317 316 316
309 309 308 308 309 309 310 312 318 317 322 322 322 328 319 316 324 325 324 322 322 322 322 322 320 318 316 319 311 311 309 306 310 321 320 316 307 306 312 311 312 316 317 316 316 317 317
309 309 309 309 309 309 310 312 317 318 322 320 316 325 322 317 321 325 322 321 319 321 318 321 321 321 321 308 307 312 314 314 316 319 313 315 306 309 306 309 307 312 317 315 316 314 316
309 309 309 309 309 309 310 312 315 319 322 323 316 321 328 321 321 324 322 321 322 320 317 321 320 319 318 310 314 314 315 317 317 315 310 307 306 306 311 304 309 314 315 315 314 312 315
309 309 309 309 309 309 310 311 313 316 321 325 320 323 328 319 320 322 323 321 322 320 315 318 315 315 308 311 311 311 311 311 313 316 313 310 309 313 310 310 311 314 315 312 312 315 312
310 310 310 310 309 309 309 310 312 314 318 325 326 324 325 322 322 322 320 319 320 321 319 318 314 322 315 311 311 314 311 312 307 311 315 315 313 313 311 311 310 314 313 314 313 312 311

GFSGBSN_925_thetae_006.txt.gz
Theta_e
315 313 311 311 311 313 314 315 315 314 313 311 312 312 312 312 312 313 312 312 312 311 311 310 310 311 316 323 319 318 316 316 316 315 317 318 320 318 316 314 313 311 311 311 310 313 312
314 311 310 310 312 313 314 314 314 313 312 312 312 312 312 312 312 312 312 312 312 311 310 309 310 313 315 320 317 318 317 316 316 316 319 319 319 317 316 314 313 312 310 311 312 314 315
313 310 310 311 312 314 314 313 313 312 312 312 312 313 313 313 312 312 311 312 311 310 309 310 312 315 320 322 318 317 316 317 317 318 318 317 320 317 316 315 312 311 311 312 312 315 315
312 310 310 312 312 314 314 313 313 312 312 313 313 312 312 313 312 311 310 311 310 310 310 312 315 316 320 314 316 316 316 317 317 318 318 318 318 317 315 314 314 314 312 313 314 314 316
311 309 310 312 313 314 314 313 312 312 313 313 313 313 312 311 311 311 311 310 310 311 313 315 316 320 317 318 316 316 316 316 318 319 319 318 318 315 313 311 311 312 313 315 316 314 316
310 309 311 312 313 315 314 313 313 312 312 313 314 314 311 310 310 310 310 311 314 314 317 316 317 321 320 322 316 316 316 317 318 317 317 316 313 314 313 312 313 314 316 314 315 315 317
310 309 311 312 314 314 314 313 313 313 312 314 315 314 312 310 310 310 312 315 315 315 319 314 318 320 318 319 316 316 317 317 318 317 318 317 316 315 316 316 316 316 316 315 316 316 316
309 309 310 311 314 314 313 313 313 313 313 313 315 315 314 313 312 313 315 323 323 322 318 319 320 318 318 315 316 315 317 318 318 318 317 315 317 317 317 319 319 319 319 319 317 317 315
309 309 309 311 314 314 313 313 313 313 313 312 315 315 315 314 314 314 314 317 322 323 319 317 317 317 317 318 316 316 318 317 318 317 317 317 317 317 319 318 320 320 319 319 319 317 314
309 309 308 311 314 314 313 313 313 313 313 313 315 317 315 316 315 321 318 324 326 327 312 315 317 316 318 318 317 317 317 318 318 317 317 317 318 320 319 319 319 323 321 320 319 317 313
309 308 308 310 314 314 313 313 313 313 313 313 314 320 319 316 319 324 325 325 326 325 314 315 318 317 317 318 318 318 319 320 319 317 318 320 320 320 320 320 319 322 320 320 320 318 318
308 307 307 310 313 314 313 313 313 313 313 313 314 315 319 318 323 327 324 321 322 321 319 318 317 318 316 318 318 317 318 318 319 318 317 318 318 319 319 319 320 319 321 321 320 319 320
308 306 307 310 313 313 313 313 314 313 314 313 314 317 317 325 328 326 320 317 320 318 321 317 318 319 318 319 320 320 318 318 319 320 320 320 320 319 319 321 319 318 322 322 323 320 321
307 306 307 310 312 313 313 314 314 313 314 313 316 318 326 329 326 320 324 319 325 322 319 317 318 319 320 320 319 320 319 318 317 320 320 321 322 318 317 319 320 321 320 320 327 320 321
307 307 307 310 311 312 313 314 314 313 313 313 316 322 328 319 320 318 320 320 325 323 318 319 319 320 321 321 320 318 317 317 318 317 321 322 321 319 317 317 320 322 316 317 318 315 317
307 307 307 309 310 312 313 314 314 313 313 314 318 325 324 321 316 320 320 324 326 320 320 318 319 320 320 320 321 320 320 319 320 316 316 319 321 318 317 319 319 315 316 321 315 319 319
307 307 307 308 309 312 312 315 315 314 313 316 325 314 323 322 315 315 320 324 324 319 322 319 320 319 320 319 320 321 321 319 319 319 315 320 318 318 320 319 320 319 320 318 316 314 316
307 306 306 308 309 312 312 316 316 316 314 318 321 318 327 325 309 316 322 326 319 319 320 321 322 323 320 322 325 323 323 322 319 320 317 317 314 313 319 318 318 318 319 317 313 321 312
307 306 306 307 309 311 312 316 317 316 316 319 319 322 328 326 308 307 323 323 320 320 320 321 322 322 322 322 324 324 322 319 316 317 320 317 314 315 320 320 317 319 318 320 314 309 314
307 307 306 307 309 310 311 316 317 317 318 323 320 317 316 317 315 321 324 322 322 320 321 321 321 321 322 323 322 323 323 321 316 315 314 317 318 315 318 318 314 315 315 319 316 312 314
307 307 306 307 308 310 311 315 317 317 318 320 321 316 313 311 313 323 324 322 323 322 321 320 321 322 321 323 324 323 322 320 318 314 317 316 317 316 315 315 315 315 315 314 315 315 315
308 307 306 307 308 309 311 315 317 317 317 320 323 320 316 311 316 321 321 322 322 322 321 322 320 322 320 319 320 322 320 319 319 318 320 315 314 313 316 317 317 315 314 314 313 314 314
308 307 307 308 308 310 311 315 316 316 318 319 321 322 317 315 314 318 317 321 322 321 320 320 320 319 318 321 317 316 317 318 318 319 315 312 307 308 313 312 312 310 314 317 316 315 315
309 308 307 308 309 310 312 316 316 315 317 325 325 321 316 313 315 317 324 322 321 320 322 321 318 317 319 315 310 309 309 315 317 315 311 310 310 303 305 303 307 316 314 315 318 317 315
309 308 308 308 309 310 312 317 317 318 321 324 322 323 314 309 315 322 321 322 320 319 320 321 319 316 312 311 306 309 307 308 310 316 317 310 302 306 304 307 306 312 315 315 314 318 315
309 308 308 309 309 310 312 316 318 321 321 318 322 324 314 314 317 323 320 319 315 316 315 320 319 318 311 302 305 310 308 310 314 319 311 310 302 305 308 302 302 308 315 314 313 313 314
309 308 309 309 309 310 312 314 318 321 323 317 318 324 322 316 318 320 319 319 317 314 313 318 320 317 309 300 307 312 314 313 315 312 309 305 301 305 304 300 306 307 311 313 313 311 313
309 309 309 309 309 309 311 313 316 320 324 321 323 326 323 315 318 321 320 319 318 315 314 316 314 311 306 305 302 310 309 309 310 312 311 309 307 305 303 303 310 309 313 312 310 312 311
309 309 309 309 309 309 310 312 314 317 324 324 322 325 323 316 319 319 320 320 320 316 316 314 312 314 309 309 309 313 309 310 303 311 312 312 309 309 311 311 308 309 311 312 311 311 310

GFSGBSN_925_thetae_009.txt.gz
Theta_e
315 315 315 313 311 310 312 312 312 314 314 314 312 312 312 312 313 313 314 313 312 312 311 309 309 310 315 321 317 317 317 318 318 316 315 315 317 316 315 313 314 311 310 310 310 309 309
314 315 315 312 310 310 312 313 313 313 313 312 312 312 312 312 312 312 314 313 312 311 310 309 309 312 315 315 316 317 316 316 317 316 316 316 316 317 317 313 310 310 310 310 311 312 311
314 315 315 310 310 311 313 314 313 313 312 312 312 312 312 312 312 313 313 311 312 310 309 309 311 315 319 316 317 316 316 316 316 316 315 318 318 318 313 313 311 309 310 311 311 313 313
313 314 314 310 310 312 313 314 313 313 312 312 312 312 312 312 312 312 312 311 311 310 309 311 314 315 316 314 316 316 316 315 315 316 317 317 317 316 314 312 311 312 310 311 312 314 313
313 314 313 309 310 312 314 314 313 312 312 312 313 313 312 311 312 311 310 311 309 310 313 315 315 318 316 314 317 317 316 315 317 316 317 316 316 312 312 310 310 310 312 314 315 312 314
313 314 311 309 311 313 314 314 313 312 312 312 313 314 312 311 311 310 310 310 314 314 314 314 316 318 316 317 316 316 315 316 317 317 316 315 312 313 311 308 309 313 315 312 314 314 314
312 313 311 309 311 313 314 313 313 312 312 312 314 314 312 310 310 310 312 313 312 314 316 311 315 319 319 319 315 315 315 317 316 314 316 314 315 315 315 315 314 315 315 314 313 314 314
312 313 310 309 311 313 314 313 313 313 313 312 314 314 312 310 310 312 315 319 321 322 322 317 318 318 318 318 315 315 317 317 316 316 316 314 316 316 316 318 318 317 317 317 316 314 315
312 313 309 310 311 313 314 313 313 313 313 312 313 315 313 312 313 314 314 315 323 318 320 315 318 317 316 315 314 315 317 317 317 317 316 316 317 317 317 317 320 320 318 318 317 315 316
312 312 309 310 310 313 314 313 313 313 313 312 314 314 314 314 314 316 316 318 326 325 311 314 316 315 317 316 316 316 316 317 317 316 315 317 318 318 318 318 318 322 320 318 316 317 320
312 311 309 309 310 313 313 313 313 313 313 312 313 316 315 315 319 323 325 324 326 321 312 313 317 316 315 318 316 315 318 318 317 317 317 319 319 319 319 319 319 321 319 318 318 315 315
313 309 309 309 309 313 313 313 313 313 313 312 313 319 317 316 319 325 325 324 320 318 316 317 316 317 316 317 317 316 317 316 317 316 316 318 317 318 318 318 318 318 319 319 318 317 318
312 308 309 308 310 313 313 313 313 313 313 312 313 316 318 323 326 327 323 314 315 319 318 316 317 317 317 318 318 317 317 316 318 318 319 318 318 316 318 321 318 318 319 320 321 318 320
312 308 308 307 310 313 313 313 313 313 313 313 314 317 319 327 327 323 320 313 323 320 319 316 318 317 319 319 318 318 317 316 315 318 318 320 320 317 315 318 319 319 319 320 324 319 319
309 308 307 307 310 312 313 313 313 313 313 313 317 319 327 321 322 321 316 316 321 320 317 317 319 320 320 319 318 317 317 316 317 316 321 320 320 318 316 316 319 320 316 316 317 313 317
308 308 306 308 310 312 313 313 314 313 313 313 319 324 323 321 318 319 318 321 325 321 318 317 319 318 319 319 320 319 320 318 319 315 315 319 318 317 316 318 317 316 316 319 313 317 317
308 307 307 308 310 311 313 313 314 313 313 315 322 311 319 324 314 311 316 321 325 318 320 318 317 318 319 318 319 320 320 319 319 319 315 319 314 316 318 318 318 318 318 315 315 312 314
308 307 307 308 309 311 312 314 314 313 313 319 314 310 327 319 309 312 318 322 321 318 318 321 321 320 318 321 323 322 322 320 317 319 316 317 313 313 318 316 317 317 318 313 311 318 310
307 307 307 308 309 311 311 315 315 314 315 320 315 321 326 314 309 305 315 324 319 319 319 321 321 321 320 322 322 322 321 318 313 316 318 315 313 315 320 318 315 318 319 315 311 308 316
307 307 306 308 309 311 312 316 316 315 316 321 314 318 314 313 309 311 318 320 321 319 320 320 320 320 320 322 320 322 322 319 314 314 314 315 316 313 317 317 313 314 315 316 313 310 312
307 306 307 308 309 310 312 316 316 315 317 322 316 313 313 312 314 323 320 320 321 321 320 319 320 321 320 323 322 322 321 319 316 315 316 313 314 315 314 314 314 314 314 315 316 314 315
307 306 306 308 309 310 312 316 316 316 319 319 321 315 312 308 312 319 319 322 320 321 320 321 319 321 319 317 319 321 318 316 317 318 318 310 313 311 316 314 314 314 312 311 311 312 314
307 306 307 308 309 310 312 316 316 316 318 316 318 319 313 310 313 316 316 321 321 319 319 319 319 317 317 319 316 315 315 315 316 318 313 308 306 305 307 309 310 306 310 314 314 315 313
307 306 308 309 309 311 315 316 316 317 317 320 323 317 314 311 309 313 320 320 320 319 320 319 317 316 316 310 309 308 308 314 316 314 309 309 305 300 304 302 304 309 310 313 314 316 314
307 307 308 309 310 311 316 316 315 317 317 322 322 318 312 309 313 319 320 320 318 318 319 320 318 314 311 306 308 311 306 308 309 314 312 307 301 306 303 305 305 308 314 316 315 314 313
308 308 309 309 310 312 315 317 318 316 317 318 322 321 312 317 316 319 319 318 313 314 314 319 317 313 308 300 304 306 308 310 314 318 310 306 299 302 304 300 301 305 313 312 311 312 313
308 308 309 309 310 312 315 317 321 321 320 318 322 324 317 314 317 317 317 318 313 313 312 317 319 316 307 299 300 309 312 309 314 312 307 304 299 300 298 298 304 304 311 311 314 309 312
308 308 309 309 310 312 314 316 320 320 318 319 323 325 319 314 318 320 318 317 316 314 314 315 313 310 303 304 301 304 306 308 309 310 311 310 308 303 304 303 309 307 310 313 310 310 311
309 309 309 309 309 310 313 314 318 323 322 323 323 321 320 315 317 319 319 319 319 314 313 311 314 312 308 305 302 306 308 308 303 311 310 310 307 308 308 309 307 307 311 309 309 310 309

GFSGBSN_925_thetae_012.txt.gz
Theta_e
315 314 314 314 315 314 311 310 311 312 314 312 314 313 312 312 313 313 312 312 312 311 310 310 310 310 313 318 316 316 317 318 315 315 315 313 313 314 316 315 312 313 311 310 309 309 309
315 313 314 314 314 314 310 310 312 312 313 313 312 311 311 311 311 312 313 312 312 310 309 310 310 311 312 316 315 316 315 317 317 315 314 313 314 314 316 313 313 311 309 309 309 307 307
315 314 313 313 315 313 310 310 312 313 313 313 312 312 312 311 312 312 312 313 311 310 310 310 310 312 316 315 316 315 316 315 316 317 314 315 315 315 314 314 310 308 309 309 309 312 311
315 314 313 314 314 312 309 311 313 313 313 312 312 312 312 311 312 312 312 312 311 310 310 309 311 313 317 314 314 316 317 314 314 315 315 316 316 315 314 311 310 310 308 310 311 313 311
316 315 313 313 313 312 309 311 313 313 313 312 312 312 313 311 312 312 312 310 310 310 310 312 312 315 315 313 316 317 315 314 314 314 315 315 316 312 310 310 309 309 311 313 314 312 313
316 315 314 313 313 311 309 312 313 313 312 312 312 312 313 311 311 312 310 310 312 311 312 312 314 316 314 315 317 315 315 315 316 315 315 315 311 312 310 308 311 311 312 312 313 313 311
316 316 314 312 312 310 310 312 313 313 312 312 312 313 313 311 311 311 309 310 310 313 314 310 313 314 317 317 315 314 315 316 315 314 316 313 313 313 314 312 310 312 313 313 312 312 316
316 316 314 312 312 309 310 312 313 313 312 312 312 313 313 310 311 311 312 314 317 319 322 316 316 316 316 317 314 313 316 316 315 316 315 313 315 315 316 316 316 315 314 315 314 314 317
316 316 315 312 312 309 311 312 313 313 313 312 312 314 313 312 311 312 313 314 320 320 320 316 317 317 316 315 314 314 316 316 315 316 314 314 316 316 317 316 318 319 316 317 315 318 316
317 317 314 312 312 309 311 312 313 313 312 312 311 313 313 313 312 313 313 315 326 320 311 314 314 314 315 314 315 315 315 315 315 314 315 318 317 317 316 317 317 320 318 316 316 317 321
318 317 314 312 311 309 311 313 313 312 312 312 312 314 314 313 317 320 323 325 326 316 312 312 315 316 314 317 313 315 316 315 316 316 316 319 318 317 317 318 318 320 317 316 315 314 314
318 317 313 312 310 309 310 313 313 312 312 312 312 314 314 313 316 322 326 324 317 317 315 315 315 315 316 316 316 316 316 314 314 316 315 317 316 316 317 317 317 317 318 316 316 315 317
316 317 313 312 309 310 310 313 313 312 312 312 312 317 314 315 324 327 324 311 314 318 317 316 316 315 316 317 317 316 315 315 317 318 319 317 317 315 316 320 317 317 317 319 320 317 319
315 317 312 312 308 309 310 313 313 312 312 312 312 316 316 323 328 325 316 311 319 319 317 315 316 315 318 318 317 316 316 316 315 316 317 319 318 316 315 317 318 318 318 318 322 319 320
315 317 312 311 309 308 310 312 312 312 313 312 312 314 320 323 325 322 310 310 316 317 316 316 317 318 319 318 317 316 316 315 316 315 320 319 319 316 315 316 318 318 315 314 316 312 316
316 315 312 309 309 308 311 312 312 312 312 312 316 318 323 324 321 316 312 316 323 321 317 317 318 317 319 319 319 318 319 317 318 316 315 318 317 316 315 317 315 316 314 316 312 316 317
315 313 312 308 308 308 311 312 312 313 312 313 319 312 318 326 314 309 311 317 323 321 318 317 317 318 317 317 318 319 319 319 319 319 316 316 314 315 316 317 317 317 316 313 313 311 312
315 312 310 308 307 309 311 312 312 313 312 317 309 311 325 317 310 309 314 321 321 318 318 320 318 318 317 320 321 321 320 319 315 318 317 315 313 313 317 315 316 316 317 311 309 314 308
314 312 308 307 307 309 310 312 312 313 313 319 313 320 322 311 308 305 312 321 320 317 319 320 320 319 319 320 321 321 320 317 312 316 316 313 313 316 317 314 314 318 317 312 309 308 315
312 309 308 307 308 309 311 311 314 313 314 319 315 319 315 309 307 310 315 318 320 318 320 318 319 318 319 321 319 321 320 317 313 315 315 313 313 313 315 315 312 314 317 313 311 309 311
311 308 307 307 308 309 311 311 315 313 315 319 311 315 316 313 313 312 314 319 320 321 319 317 319 319 319 322 321 321 320 317 315 315 315 311 314 314 314 313 313 313 313 315 314 312 313
308 307 307 307 308 310 310 313 315 314 316 317 319 312 307 310 316 319 316 319 320 320 319 320 319 320 318 317 317 319 316 314 313 317 315 308 310 309 317 313 311 314 311 311 312 312 312
307 307 306 307 309 310 310 314 315 315 317 315 317 314 310 307 311 316 315 321 320 318 318 317 318 316 317 319 315 313 311 311 314 316 310 306 305 304 304 307 306 306 308 309 310 309 310
307 306 306 308 309 310 311 315 316 315 318 318 320 316 311 307 307 313 317 319 319 317 319 317 315 315 315 309 309 308 308 312 313 312 308 304 303 299 303 301 303 308 308 310 312 313 311
306 306 307 309 309 310 314 315 316 315 318 322 322 317 311 304 307 315 318 318 317 316 318 318 317 312 308 306 308 312 307 308 307 311 307 304 300 303 303 303 304 307 312 313 313 312 312
306 308 309 309 311 313 316 315 316 315 317 320 321 323 312 311 312 316 317 316 311 313 311 318 314 309 305 299 303 308 311 312 312 317 309 304 298 302 298 300 301 305 308 311 311 313 311
308 309 309 311 312 315 316 316 315 315 316 319 322 323 315 315 316 315 315 316 312 311 310 315 316 314 305 298 300 304 307 307 312 311 308 305 301 299 299 297 303 303 310 310 314 311 310
308 309 310 311 313 314 316 319 317 316 316 318 321 324 316 314 317 319 316 314 314 313 313 313 312 309 302 304 302 303 301 307 308 309 310 310 307 302 300 299 306 305 311 312 310 307 309
309 309 310 311 312 314 316 319 322 319 319 316 322 319 318 314 315 318 317 317 318 313 312 310 314 311 308 304 297 302 307 306 301 309 308 310 306 306 305 306 305 305 308 308 307 308 309

GFSGBSN_925_thetae_015.txt.gz
Theta_e
317 316 316 314 314 314 314 314 312 310 311 313 313 313 311 312 312 312 312 311 312 312 311 310 310 310 312 317 318 315 317 311 311 314 314 314 315 316 318 317 315 314 314 310 310 315 316
319 316 317 314 314 313 314 314 312 309 311 311 312 313 312 312 310 312 311 311 311 311 310 309 309 310 311 316 314 316 316 316 313 314 314 313 314 314 316 315 316 314 310 310 309 310 309
319 316 317 315 313 313 314 314 311 309 311 312 312 312 312 312 311 312 311 312 312 310 309 308 309 310 314 316 315 316 315 315 316 314 314 314 314 316 316 315 311 309 311 310 311 311 311
320 317 317 315 314 313 313 314 310 309 312 312 312 312 312 312 310 311 311 312 311 309 308 309 309 311 318 313 314 314 315 315 315 315 315 316 315 315 316 312 312 312 312 313 312 313 311
323 318 316 316 314 313 313 312 310 310 312 313 312 312 312 312 311 312 311 310 309 309 309 309 311 313 319 313 314 316 315 314 313 315 315 315 315 317 311 313 314 313 314 314 314 313 313
322 320 316 316 315 313 312 312 309 310 312 313 312 311 312 312 312 312 310 308 309 310 310 311 313 316 313 314 317 314 314 314 316 314 315 315 313 315 313 313 315 315 314 313 315 314 318
318 322 317 316 315 314 312 311 309 311 312 313 312 311 312 312 313 311 309 309 311 313 312 314 313 312 314 316 314 314 314 315 315 316 317 315 317 317 316 312 311 312 313 314 313 315 322
312 320 319 316 316 314 312 311 309 311 313 312 312 311 312 313 312 310 310 312 313 318 322 316 315 315 315 316 315 313 316 317 317 317 315 317 318 315 316 316 316 316 316 317 317 318 321
307 314 320 317 316 315 312 311 309 311 313 312 312 311 313 312 312 309 310 314 316 320 321 317 317 317 316 315 314 313 315 315 315 316 315 318 316 315 317 317 320 318 318 317 320 320 320
306 310 318 318 316 315 312 311 309 312 313 312 312 311 313 312 310 312 312 313 318 319 314 315 314 314 314 313 315 313 314 315 316 315 318 319 316 316 317 319 318 321 317 318 321 321 323
308 306 314 319 316 315 312 310 309 311 313 312 312 311 313 311 314 314 318 324 324 314 319 313 314 315 313 314 314 315 315 315 316 316 317 319 318 318 319 318 318 320 316 318 316 317 318
308 306 309 318 317 315 312 310 310 311 313 312 312 311 313 312 312 319 322 324 316 321 320 314 315 315 316 315 315 314 317 315 314 317 317 317 315 316 317 316 316 318 319 319 318 319 322
306 307 308 317 317 315 312 310 310 312 313 312 312 311 313 313 318 326 326 312 319 322 316 315 315 314 316 317 317 316 316 318 319 322 321 318 318 315 316 320 318 319 321 325 327 328 324
305 308 307 315 317 315 312 309 310 312 312 312 311 311 314 314 318 323 314 314 317 317 318 314 314 315 318 317 316 315 316 318 316 317 319 320 319 317 315 318 320 319 321 327 326 327 324
304 308 307 313 317 315 311 309 310 312 312 311 311 312 314 315 315 318 313 315 316 316 316 316 316 318 318 317 317 317 316 316 316 315 322 322 321 315 314 315 318 319 319 317 319 314 320
302 307 307 311 316 314 311 309 309 312 312 311 312 314 317 324 325 314 314 314 318 318 317 315 316 317 319 318 319 318 318 317 317 317 315 319 320 315 315 316 316 317 315 320 318 320 319
302 307 306 312 315 313 310 309 309 312 311 311 317 317 317 325 317 313 316 314 322 321 317 316 317 318 318 319 318 319 318 318 318 318 316 315 318 318 316 318 320 319 318 315 316 316 317
302 306 307 313 315 312 309 308 310 311 311 312 309 314 321 314 313 310 316 318 320 320 316 319 316 317 317 319 320 320 320 319 315 318 319 315 317 321 318 315 316 316 317 316 319 315 313
303 305 306 313 315 311 309 308 311 311 312 315 311 320 317 310 313 310 312 319 321 317 318 319 320 318 319 321 321 320 320 315 312 315 318 315 318 322 320 316 315 318 317 312 312 314 317
304 303 304 310 314 309 308 310 312 311 312 316 317 322 318 309 307 312 315 317 320 317 318 317 319 318 320 321 319 321 320 316 314 315 314 314 314 318 321 316 315 317 318 313 315 318 316
303 302 304 312 312 308 307 311 311 311 313 315 312 317 318 316 311 310 312 316 320 320 318 316 319 319 320 322 321 320 319 316 315 315 315 313 317 315 314 313 314 313 315 314 314 314 320
302 304 309 313 309 307 309 311 311 312 313 313 314 314 308 312 313 313 311 319 319 319 319 319 320 319 318 319 319 321 318 315 314 317 314 309 315 311 316 313 312 315 313 312 314 314 313
304 305 309 309 307 308 309 311 311 313 314 314 315 310 312 306 314 314 315 317 319 319 318 317 318 318 318 318 315 313 312 312 314 317 312 310 311 310 312 308 308 313 312 313 312 312 315
304 309 310 307 307 308 310 310 312 314 315 316 318 311 311 308 311 313 317 319 319 317 319 317 315 317 315 311 310 311 311 313 313 310 308 307 306 304 313 306 314 312 311 310 312 311 311
309 310 307 307 307 309 310 311 314 314 315 321 320 315 310 306 309 313 317 318 317 316 318 318 316 312 310 309 314 315 313 312 311 309 307 305 307 307 316 311 308 309 308 313 315 314 313
309 307 306 307 308 309 310 312 315 314 315 319 320 316 310 310 311 313 317 316 315 314 314 316 312 307 306 305 310 316 319 315 313 316 309 305 303 312 307 311 312 310 306 312 312 318 312
307 306 307 309 309 310 312 315 315 315 315 318 321 318 316 314 315 314 317 317 312 313 315 313 313 313 306 306 310 313 314 309 313 313 312 312 307 311 303 314 310 306 309 310 316 316 310
307 308 310 310 312 314 315 315 315 315 315 318 321 321 317 315 316 317 313 314 313 314 317 314 315 313 307 311 312 311 313 311 311 310 313 314 313 311 303 309 314 305 312 316 315 309 310
309 310 312 313 314 315 316 316 315 315 316 318 320 319 318 315 316 316 316 316 316 312 314 311 316 313 312 310 304 305 311 308 307 317 309 314 312 314 310 313 308 306 312 309 308 310 311

GFSGBSN_925_thetae_018.txt.gz
Theta_e
323 320 319 317 316 315 314 313 314 314 312 310 310 311 312 312 312 312 311 311 311 311 310 310 309 309 313 320 317 316 313 311 312 313 315 316 317 316 316 318 319 318 318 317 316 321 326
324 323 320 318 316 316 314 313 314 314 312 310 311 312 312 311 311 311 311 311 311 311 310 309 308 308 315 318 315 317 314 313 314 315 317 317 317 317 319 319 319 318 317 315 314 322 321
318 324 321 319 316 316 314 313 313 314 312 309 311 312 313 311 311 310 310 311 311 310 309 308 308 310 317 318 315 320 318 317 315 316 319 317 317 317 318 319 316 315 315 315 314 319 320
314 320 323 320 317 316 314 313 312 313 312 309 312 312 312 311 311 311 311 310 311 309 308 308 308 311 320 315 316 317 317 317 317 316 317 317 317 318 318 316 314 315 316 316 316 318 314
313 313 322 323 318 316 315 314 312 313 312 309 312 312 312 311 311 310 310 310 310 309 308 309 312 315 320 315 315 316 316 316 317 317 316 315 317 319 317 319 315 315 315 315 317 318 316
310 313 317 322 321 316 315 314 313 312 311 310 312 312 311 312 311 311 310 309 308 308 309 311 314 321 320 317 318 316 314 315 317 318 317 318 319 319 317 318 316 316 317 315 316 319 316
308 311 313 321 322 317 316 315 313 311 311 310 312 312 311 312 312 311 309 311 316 318 315 319 316 317 315 316 316 315 315 316 318 318 321 318 319 318 318 317 316 316 317 317 318 321 323
305 308 311 318 321 319 316 315 314 311 310 310 312 312 312 312 312 310 310 316 318 322 323 319 318 317 316 316 318 316 317 319 320 320 319 319 319 319 320 318 318 318 317 320 320 321 324
306 306 307 310 320 321 316 315 314 311 309 311 312 312 311 313 311 309 312 314 318 317 326 321 321 319 318 317 317 316 318 319 318 319 319 320 321 319 320 320 320 321 321 322 321 322 323
305 305 306 307 316 320 317 316 314 311 309 311 312 312 312 312 309 313 314 313 314 316 322 318 317 319 317 318 316 316 318 319 319 320 320 322 319 320 321 321 321 322 320 322 323 323 322
305 304 306 306 307 318 319 316 315 311 309 311 312 312 312 311 316 315 320 322 322 320 320 317 316 315 316 317 317 319 317 320 319 320 321 322 321 321 322 322 321 323 321 323 322 323 323
304 303 306 307 306 314 319 316 315 311 309 311 312 312 312 310 313 317 319 323 323 327 320 317 317 318 318 318 318 319 320 319 320 321 321 321 319 321 321 320 321 321 322 322 322 323 324
304 303 304 307 306 310 317 317 315 311 309 311 312 311 312 313 317 324 324 323 324 323 318 317 317 318 318 318 319 321 321 322 322 323 323 322 321 320 321 322 322 323 323 324 325 326 325
303 303 304 305 307 308 315 318 315 311 309 311 312 311 312 314 316 319 319 320 320 318 318 317 317 319 320 319 320 321 322 322 321 322 323 321 324 320 320 322 322 323 323 323 321 324 321
302 303 304 305 306 308 314 317 314 311 309 312 311 310 310 314 314 318 321 326 320 321 320 318 318 319 321 320 319 322 322 322 321 321 321 322 321 319 319 320 321 322 322 322 325 322 325
302 302 303 304 306 308 313 317 314 310 309 312 312 312 316 317 315 317 324 321 319 321 320 318 317 318 320 320 319 320 322 321 321 320 321 323 324 320 320 320 320 322 320 324 324 325 322
301 300 301 303 307 308 312 317 313 309 310 312 315 318 322 321 321 324 327 321 320 325 323 319 318 319 319 321 320 319 320 321 321 320 321 321 322 322 321 322 323 322 322 319 321 322 318
301 299 299 301 306 307 311 316 312 309 311 311 317 321 321 320 325 322 322 319 323 325 322 321 320 321 321 322 322 322 321 322 320 321 323 320 323 326 323 320 320 321 322 319 319 319 321
300 300 300 300 306 307 310 315 311 309 311 312 318 324 318 313 325 326 319 320 324 322 321 323 321 322 323 324 325 324 323 318 317 320 323 321 324 326 324 321 320 322 321 319 319 321 321
299 298 300 300 305 306 312 314 309 310 312 316 320 328 324 317 317 320 320 320 320 321 322 322 323 324 325 325 324 326 324 319 318 319 313 316 323 324 326 321 321 322 322 319 319 321 318
298 300 300 302 304 304 313 313 309 311 311 317 321 323 323 327 320 319 320 319 320 323 321 322 323 324 325 326 325 325 323 319 319 316 320 321 323 320 318 318 317 318 320 320 319 319 319
299 300 301 303 303 309 312 312 308 311 312 318 322 323 320 322 317 317 317 319 319 322 323 323 325 324 324 326 324 326 323 321 322 321 321 317 323 318 320 318 317 318 318 318 319 319 318
299 300 303 303 303 307 313 310 308 311 313 318 320 315 320 315 318 319 318 319 319 324 322 321 324 325 325 324 322 321 319 319 320 322 321 320 320 318 319 315 316 321 318 317 317 318 319
300 301 302 303 304 305 311 308 309 311 314 318 321 318 322 322 320 318 316 318 323 323 325 321 322 325 320 317 318 318 319 318 317 315 315 315 316 315 321 313 329 315 314 314 316 316 316
300 302 302 307 308 310 309 308 310 311 314 321 320 319 321 324 320 317 317 317 322 322 323 323 320 318 317 318 324 322 324 324 320 314 313 313 316 318 328 318 315 312 311 312 316 315 316
303 303 305 305 309 308 307 309 310 312 314 320 321 315 322 323 320 317 318 321 326 326 324 318 315 313 313 320 324 328 327 322 321 321 314 311 312 319 317 333 333 315 312 315 316 317 314
304 307 307 309 308 307 308 310 310 313 313 320 321 316 321 324 318 320 320 322 323 324 326 319 317 318 313 322 334 330 326 316 319 320 321 320 319 325 319 327 318 313 311 315 316 315 316
306 309 309 307 307 308 309 310 312 314 313 320 321 317 324 325 320 321 319 321 320 324 328 320 321 319 319 329 332 325 328 318 317 316 319 321 322 323 315 326 325 310 315 320 318 317 315
308 307 306 307 308 309 309 311 313 314 313 320 323 319 319 324 322 319 318 317 319 320 323 320 325 322 323 326 322 321 321 314 321 325 314 319 319 320 317 318 313 312 316 316 315 316 316

GFSGBSN_925_thetae_021.txt.gz
Theta_e
317 322 324 321 320 318 316 316 314 313 314 314 311 310 312 311 311 311 311 311 311 311 311 310 309 308 313 322 321 318 311 313 312 316 317 316 317 318 317 317 318 319 320 320 324 325 322
313 316 320 324 321 319 316 316 314 313 314 314 311 310 312 312 312 311 311 311 311 310 311 309 309 308 317 321 317 321 316 314 316 317 316 316 317 317 318 319 320 320 320 319 321 324 326
309 313 315 321 324 320 318 316 314 313 313 314 311 310 312 312 311 311 310 310 311 311 310 308 307 311 318 321 317 321 317 316 317 316 318 318 318 318 320 320 320 319 318 317 319 323 324
308 308 313 315 322 323 319 316 315 314 313 313 311 310 312 312 311 311 311 310 310 310 309 308 307 314 321 318 318 320 320 320 319 317 318 319 319 319 320 320 318 318 318 319 318 322 323
307 308 310 313 317 323 321 317 316 314 313 313 311 310 312 312 310 311 310 310 310 309 308 310 315 318 323 317 316 317 319 319 319 319 318 318 319 320 321 321 318 318 317 319 319 321 322
308 306 308 311 314 321 323 318 316 314 313 312 311 310 312 311 311 310 310 309 311 310 312 313 316 323 323 319 318 317 318 318 320 320 320 320 320 322 321 321 318 318 318 317 319 321 321
303 307 306 310 313 316 322 321 316 315 313 312 311 310 312 311 311 311 310 313 318 321 318 321 321 320 318 318 318 318 317 318 320 322 322 321 320 320 319 320 318 319 319 317 318 319 318
304 305 305 307 310 313 320 322 317 315 314 312 310 311 312 312 312 311 311 317 321 323 326 320 319 318 318 317 319 318 317 320 321 320 320 321 321 320 319 319 317 318 318 319 319 319 321
304 305 305 304 306 309 317 321 319 316 314 312 310 311 312 311 312 310 314 316 321 320 328 322 320 319 318 319 318 318 318 320 320 320 321 321 321 321 320 318 318 319 318 321 321 321 322
305 305 303 304 305 307 310 319 320 316 315 312 310 311 312 311 310 316 316 315 316 317 328 320 321 321 320 319 318 318 318 320 319 320 320 323 322 321 319 320 320 321 322 321 322 323 322
304 304 303 304 305 305 307 316 320 317 315 312 310 312 312 312 320 317 323 324 320 326 327 319 318 319 319 318 318 319 319 319 320 320 320 322 322 321 320 322 323 325 322 323 322 323 324
302 304 304 302 304 305 306 309 318 318 315 312 310 312 312 311 313 320 321 327 327 333 324 318 318 318 319 318 317 319 318 319 321 319 321 323 322 322 323 322 322 322 324 324 323 321 324
303 304 304 304 302 303 306 307 315 319 315 312 310 312 311 314 318 321 326 328 331 328 319 318 317 318 318 317 317 318 318 318 319 320 320 322 322 322 322 323 323 322 323 325 324 326 325
302 303 304 304 302 303 305 307 311 318 315 312 310 312 311 315 318 323 328 329 328 320 319 317 317 317 318 318 317 317 318 318 318 321 321 322 324 322 322 323 322 323 322 325 321 322 323
299 303 303 304 303 302 304 307 308 316 315 311 311 311 313 314 316 321 329 332 325 318 319 318 317 318 319 318 318 318 318 318 319 320 321 321 322 321 321 322 321 322 323 323 325 325 325
298 300 302 303 303 303 303 305 308 315 314 310 313 313 315 316 316 323 328 326 322 320 320 318 318 319 321 320 318 318 320 321 323 323 324 322 322 321 322 322 322 323 322 323 321 322 322
298 299 302 302 302 303 304 305 308 314 313 310 315 318 317 319 319 325 328 324 321 322 321 319 318 318 320 320 319 319 320 322 323 323 323 321 321 324 323 323 321 324 322 321 322 325 324
297 298 300 301 301 302 304 305 308 313 313 310 317 321 323 322 322 326 326 322 319 323 325 321 321 319 319 320 320 320 319 320 322 323 322 321 321 324 323 323 323 323 323 323 324 321 322
298 298 299 301 301 302 303 306 309 313 310 313 322 323 325 321 328 335 324 322 320 323 323 323 320 320 320 320 320 320 320 322 322 323 322 324 321 324 324 324 323 321 321 322 321 323 320
297 297 300 301 300 300 302 306 309 313 310 315 321 326 326 325 324 326 325 322 321 323 322 322 320 322 323 324 324 325 325 322 322 322 313 318 322 322 325 324 323 325 322 321 322 324 321
297 299 301 300 300 300 301 305 308 312 310 315 322 322 323 329 328 327 323 321 320 322 323 323 324 322 323 323 325 326 326 323 322 318 320 323 324 323 322 322 321 321 320 321 321 320 323
298 298 299 299 301 300 302 305 308 311 310 315 322 323 322 325 324 324 320 322 320 322 323 325 323 322 322 324 324 323 326 325 325 324 324 322 324 323 324 322 321 320 319 318 318 319 318
297 298 298 299 300 301 301 303 308 312 310 316 321 321 324 325 327 323 325 321 320 323 326 324 323 324 324 326 326 325 325 324 324 326 326 325 326 322 319 318 320 323 322 320 318 318 319
299 299 299 300 300 302 302 302 308 311 310 316 321 322 325 329 327 323 320 320 320 324 325 324 325 325 325 322 322 322 322 321 320 321 323 324 323 322 321 318 326 315 316 315 316 317 317
298 298 299 300 301 302 301 302 307 311 310 316 321 323 323 332 323 320 318 319 320 324 326 325 324 324 322 323 325 325 326 326 321 318 317 318 320 322 329 319 317 316 314 314 316 316 316
298 299 300 301 302 302 302 305 310 310 310 313 324 323 324 327 325 318 318 318 327 328 327 323 321 320 320 327 329 326 325 323 325 324 317 316 318 321 320 330 329 319 315 316 317 316 315
299 300 301 302 302 303 303 306 311 309 310 312 325 320 320 319 319 318 319 319 321 326 328 324 322 321 320 330 334 330 326 321 322 322 323 323 324 327 323 327 322 316 314 316 316 320 317
300 300 301 302 303 304 305 309 309 309 310 311 325 324 321 320 321 321 319 320 320 323 330 325 324 324 325 330 335 330 333 324 323 320 323 322 325 327 324 326 326 313 316 318 321 317 316
300 301 303 303 306 308 310 309 308 310 311 313 325 323 326 324 326 323 322 321 322 323 325 324 325 326 326 329 330 332 327 320 326 326 319 323 322 323 320 321 317 315 315 315 316 316 316

GFSGBSN_925_thetae_027.txt.gz
Theta_e
309 310 312 314 317 322 324 324 321 319 317 316 314 313 313 312 310 312 312 312 312 311 310 310 311 308 312 319 323 320 312 315 315 312 314 315 317 315 314 314 314 315 315 318 327 328 328
308 307 308 309 313 316 320 323 324 321 319 316 314 313 313 312 310 311 312 312 312 310 311 310 310 309 314 322 320 318 312 314 312 314 318 317 316 315 315 316 317 316 315 318 324 328 328
309 309 307 305 307 311 316 319 322 323 321 317 315 313 312 312 309 311 312 311 311 310 310 310 309 310 315 316 319 317 316 313 315 315 315 317 317 318 318 319 320 318 317 317 320 323 325
307 306 307 307 306 308 311 317 320 322 322 319 316 314 312 312 310 311 312 312 310 310 310 310 309 311 318 317 319 318 317 316 316 317 317 317 319 319 319 318 319 318 317 318 318 323 323
307 307 306 307 308 307 308 312 315 320 322 321 317 314 313 312 310 311 312 312 310 311 309 310 312 314 324 322 319 318 319 320 319 319 318 318 319 319 319 319 318 317 317 318 318 320 322
306 307 306 306 306 307 306 311 314 317 321 322 318 315 313 312 310 311 312 311 311 309 314 311 313 316 318 322 319 318 318 319 320 320 320 319 317 318 317 318 318 318 318 316 317 319 321
305 306 307 306 306 305 307 307 312 314 318 322 319 316 313 312 310 311 312 316 314 316 314 318 318 318 319 319 318 318 318 319 319 320 321 320 318 319 320 320 320 320 318 317 315 317 321
304 305 305 307 306 304 304 306 308 313 317 321 320 316 314 312 310 311 311 315 319 318 323 320 317 318 316 319 318 317 318 318 320 321 321 320 320 320 321 320 321 321 321 319 316 317 317
305 304 304 305 307 306 304 303 306 311 315 320 320 316 314 311 310 311 312 314 310 316 323 324 323 320 316 318 318 317 316 317 320 321 322 323 322 322 321 321 322 322 322 320 319 316 315
302 303 303 304 305 306 305 303 304 308 312 318 320 316 314 310 311 313 316 314 311 312 325 324 323 320 318 318 319 318 317 319 320 323 323 322 322 321 321 322 320 320 322 321 321 321 316
301 302 302 303 303 305 305 304 305 305 309 316 319 316 313 309 314 318 320 324 319 320 331 322 321 319 318 319 319 316 319 321 319 323 322 323 324 322 322 322 321 322 320 321 323 322 323
300 300 302 303 303 303 304 305 304 304 306 313 319 316 313 311 311 315 320 322 327 330 331 322 320 319 318 318 318 316 317 318 320 322 322 322 320 322 321 321 320 321 321 323 323 322 323
301 301 299 301 303 302 303 305 304 304 306 310 317 316 312 311 315 320 319 321 328 326 321 321 319 319 318 317 317 316 317 317 319 321 321 319 320 321 322 321 322 322 321 323 324 324 326
300 301 299 299 300 301 301 303 305 303 306 307 316 316 313 310 313 317 322 328 331 323 322 320 318 318 317 317 316 316 317 316 315 317 320 322 323 322 321 320 323 320 322 326 328 330 326
300 298 300 299 299 299 303 301 304 303 304 307 313 313 312 312 310 314 325 330 324 325 319 321 316 317 317 317 315 316 317 317 316 315 319 324 325 323 324 322 321 321 319 324 327 325 328
298 300 299 298 299 299 301 301 303 304 303 307 312 312 312 312 311 315 325 326 327 322 321 320 319 317 317 317 316 315 316 317 318 321 322 325 325 324 324 322 320 320 320 322 322 323 323
298 298 298 297 296 298 302 303 301 304 303 309 313 315 314 312 316 321 322 325 325 323 321 323 319 318 318 319 316 317 317 316 318 322 322 322 326 327 324 324 321 321 320 319 319 320 322
297 297 297 297 296 298 302 302 303 304 304 310 314 317 314 314 316 316 320 322 321 323 323 322 321 320 318 320 319 316 317 323 320 321 322 322 322 324 325 321 321 321 322 323 318 320 319
296 296 297 297 297 297 301 304 305 304 304 310 315 317 315 315 315 316 316 321 323 323 323 322 322 322 321 320 323 318 325 323 323 323 322 323 320 317 318 319 322 322 321 320 323 319 320
296 296 296 297 299 298 300 301 305 304 305 311 315 319 320 319 312 315 315 320 324 323 323 322 322 322 322 320 320 321 325 323 323 321 315 322 322 318 317 319 321 323 324 322 319 317 318
295 296 296 297 297 300 298 298 304 304 305 311 314 316 320 322 320 315 317 320 324 325 322 321 322 322 321 320 321 322 325 324 324 317 320 320 320 321 323 324 323 322 323 322 320 320 319
295 295 295 297 297 298 298 298 303 303 305 310 315 316 320 321 320 320 317 322 324 323 322 322 323 321 319 322 323 322 326 325 324 321 321 321 323 323 322 321 319 318 319 319 318 319 317
295 296 296 296 296 298 297 298 302 303 306 308 311 314 318 320 321 320 318 322 323 322 321 320 323 323 321 324 323 325 324 323 324 322 321 321 317 316 320 316 314 311 313 317 318 318 317
296 296 297 296 297 298 299 298 302 303 306 307 310 314 320 320 322 318 319 320 323 322 323 322 321 322 324 321 321 320 320 321 323 322 324 319 319 313 315 312 308 313 315 314 315 314 313
296 297 297 297 297 298 298 299 302 302 304 305 307 314 320 313 320 318 318 322 324 323 322 325 326 323 321 324 322 322 316 314 320 319 322 322 314 317 313 315 314 315 316 317 315 315 314
297 297 298 298 298 298 298 301 302 301 302 305 305 307 317 322 321 317 317 322 324 322 325 326 322 321 325 324 314 322 321 320 321 319 318 316 314 311 313 315 312 316 315 315 314 315 316
297 298 297 299 298 299 299 302 303 302 301 304 305 307 313 323 320 319 319 323 323 324 323 324 323 322 324 312 320 316 317 321 322 320 316 313 312 311 309 310 315 319 315 315 311 313 316
297 298 299 298 300 301 301 302 302 301 302 303 304 306 313 319 320 322 319 321 325 323 322 322 323 320 316 320 317 316 316 316 318 322 318 316 315 311 315 317 319 315 315 312 316 315 314
296 298 298 298 298 299 300 300 300 300 301 303 302 305 308 313 319 322 323 324 324 322 322 320 325 322 323 321 319 315 318 312 316 316 319 318 319 316 317 315 316 313 313 313 312 312 314

GFSGBSN_925_thetae_030.txt.gz
Theta_e
309 308 309 310 314 317 320 322 322 323 322 319 316 315 313 312 312 310 309 311 311 311 310 310 311 308 311 316 320 320 314 314 315 314 312 313 316 317 313 313 312 313 314 318 325 325 327
308 308 307 305 306 309 315 318 321 322 322 322 319 316 314 312 312 310 309 311 311 311 310 310 310 308 314 317 320 317 313 313 312 312 315 314 317 315 313 315 315 317 315 323 326 327 327
309 308 307 308 307 305 307 313 317 320 321 322 321 317 314 313 312 311 309 311 311 311 309 310 309 310 312 311 318 317 313 312 312 313 314 316 316 317 317 317 318 318 316 319 326 326 328
307 307 307 307 307 306 306 308 313 317 320 321 322 318 315 314 312 311 309 311 311 310 309 310 309 311 315 311 319 318 316 315 315 315 315 317 317 318 317 317 318 316 315 316 323 325 325
306 306 308 307 307 306 308 307 309 314 318 320 321 321 316 314 312 311 310 311 312 310 309 310 312 314 320 319 320 318 318 316 317 316 315 318 317 317 316 318 316 313 316 317 319 320 322
306 306 306 307 307 306 306 307 306 312 315 318 320 322 317 314 313 310 310 312 312 313 313 311 311 312 314 319 320 318 318 318 319 318 318 317 314 316 315 316 317 319 319 317 316 317 320
305 306 306 306 307 306 306 305 306 307 313 316 320 321 318 315 313 310 311 312 315 317 312 313 312 313 315 317 318 319 317 317 318 318 319 319 316 318 318 317 319 319 319 318 317 314 320
304 304 305 305 306 307 307 306 306 306 310 315 318 321 318 314 313 310 311 312 315 314 318 317 318 317 317 317 316 316 317 317 319 320 320 318 319 319 319 320 320 320 320 319 317 316 319
303 303 304 304 305 305 307 306 304 304 308 313 317 320 318 315 312 310 311 312 313 312 318 322 321 321 321 317 316 317 315 317 320 320 320 320 320 320 320 320 320 320 320 320 320 315 313
304 303 303 303 304 305 305 307 305 303 305 311 316 319 317 314 309 312 313 319 320 312 322 323 323 322 316 315 318 317 315 317 318 321 321 320 320 320 320 320 320 319 319 320 320 318 315
304 303 302 302 304 304 304 306 306 304 303 307 313 319 317 314 312 315 318 318 316 319 314 320 323 320 316 317 317 316 317 318 318 321 320 319 322 320 321 320 320 320 319 319 321 320 319
302 304 303 301 302 303 303 302 305 305 305 305 311 318 316 313 311 310 313 318 322 326 324 324 319 318 317 317 318 316 318 318 317 320 320 319 319 320 320 321 319 319 320 320 321 321 322
300 303 304 302 301 302 302 303 303 305 304 305 310 314 315 313 311 316 319 320 323 327 320 322 319 318 317 318 318 315 315 317 318 320 321 320 320 319 321 320 320 320 318 320 321 322 321
299 301 303 303 301 300 301 303 302 304 305 303 308 311 315 314 312 315 322 327 327 321 324 319 318 318 318 316 317 315 315 314 314 317 317 319 322 322 321 320 320 319 318 320 324 323 322
297 299 303 302 301 299 300 302 302 303 305 304 307 311 313 315 313 312 323 328 321 325 318 318 317 318 317 316 316 315 314 314 314 313 316 322 322 321 321 321 320 319 318 319 322 321 325
298 298 303 302 301 301 299 298 300 301 304 304 309 312 313 314 314 311 323 322 323 323 321 320 318 316 316 315 315 313 314 315 316 314 318 322 321 321 322 321 320 319 318 320 320 325 326
298 299 302 301 300 300 299 299 298 302 303 303 309 314 314 313 311 315 321 319 320 321 322 322 321 319 316 316 315 314 314 315 316 322 320 321 319 321 322 323 321 319 319 318 318 316 320
298 299 300 300 299 298 299 298 297 299 303 304 310 315 313 313 314 314 320 319 316 320 321 324 321 321 316 316 316 315 315 315 317 321 320 321 322 320 322 320 321 318 320 320 316 317 315
298 298 299 300 299 299 298 297 296 300 301 305 311 315 313 314 313 312 315 318 318 319 321 323 322 320 319 320 319 320 319 322 321 320 319 319 319 316 318 316 318 320 319 319 319 314 318
298 299 299 299 299 298 297 297 299 298 302 305 311 315 315 314 313 310 315 318 319 317 319 321 323 321 321 320 320 321 324 322 321 320 317 318 317 316 317 315 316 322 323 322 319 316 317
298 298 299 298 298 298 296 297 297 301 302 305 311 315 313 316 315 311 312 315 317 316 321 321 321 322 321 319 320 321 324 323 322 317 319 317 319 318 317 321 322 319 321 322 319 318 318
298 298 298 297 297 297 297 298 297 301 302 305 312 315 314 315 314 314 312 314 314 315 318 319 322 321 319 318 318 321 324 322 321 321 319 318 319 321 321 318 317 318 316 317 318 318 318
298 298 297 297 296 297 298 298 297 301 304 305 306 311 315 315 316 316 314 314 313 314 319 318 320 320 320 319 321 319 320 320 321 319 320 318 315 314 319 313 312 313 313 314 316 317 317
297 297 297 296 296 297 297 299 299 299 300 305 305 310 317 317 319 318 315 314 314 316 316 320 318 320 321 318 317 316 315 319 322 323 320 316 314 310 313 309 311 314 313 313 313 312 311
297 296 296 296 296 296 298 298 298 298 300 305 307 309 316 311 319 319 317 315 315 317 321 320 322 319 319 319 318 318 314 316 317 319 320 319 313 315 311 312 313 314 315 312 313 315 313
296 296 296 296 296 297 298 298 297 298 302 304 305 306 309 318 318 319 318 316 315 319 318 323 322 320 322 317 312 318 318 318 319 318 315 315 309 311 312 312 310 312 314 313 312 314 314
296 296 297 297 297 298 298 298 298 298 302 304 304 305 306 313 319 317 318 316 315 320 320 323 322 323 318 311 314 314 317 318 318 317 313 310 308 309 304 307 310 312 314 312 310 309 313
297 297 297 297 297 297 297 298 297 300 303 303 305 305 307 312 315 317 314 314 318 321 322 320 321 320 312 317 316 313 310 315 315 317 315 314 312 309 313 311 315 314 313 312 309 312 311
297 297 297 297 297 297 298 298 299 302 303 303 304 304 304 307 314 312 314 316 316 319 320 318 320 321 320 318 316 312 315 309 312 317 316 315 313 312 313 313 313 312 313 313 311 312 313

GFSGBSN_925_thetae_033.txt.gz
Theta_e
310 310 310 310 310 312 315 317 319 322 322 322 322 319 316 314 312 312 311 309 311 311 311 309 309 307 310 312 313 318 314 314 314 314 311 312 315 315 314 312 311 311 313 312 317 325 324
309 309 309 308 307 306 306 310 315 318 321 321 321 322 318 315 313 312 311 309 310 311 311 309 309 307 312 308 318 318 314 314 314 313 312 313 315 314 315 313 315 316 315 325 324 325 326
308 308 309 309 307 308 306 305 308 315 317 321 320 320 321 316 314 312 311 309 310 311 311 309 309 309 312 306 317 316 314 313 312 311 313 315 316 316 316 315 317 317 318 325 326 326 326
308 307 306 308 308 307 308 306 305 310 315 318 320 320 321 318 315 313 311 309 310 311 310 310 309 312 315 310 314 317 319 315 315 313 313 315 316 316 316 315 316 315 314 319 325 326 324
307 307 307 306 307 308 308 307 307 307 311 316 319 320 320 320 315 314 311 309 311 312 311 310 311 314 317 315 317 318 319 317 317 315 314 315 316 315 315 316 313 313 315 317 325 323 323
306 306 307 307 306 307 308 307 307 307 308 313 316 320 320 321 316 314 311 309 312 313 312 311 311 309 311 317 318 319 318 317 316 316 317 316 312 314 313 314 317 318 317 316 317 316 321
305 305 305 306 307 306 307 307 306 305 306 310 313 318 321 321 316 314 310 311 312 315 312 312 308 308 311 316 317 317 317 316 317 317 318 317 316 317 317 316 318 319 319 319 318 317 319
306 304 305 305 305 306 306 307 307 307 307 306 311 316 320 320 316 313 310 310 312 312 315 314 315 314 315 317 317 315 315 316 318 318 319 316 319 317 317 318 319 319 320 320 317 315 315
303 306 304 304 304 305 306 306 307 307 305 306 310 315 319 320 315 313 310 312 316 315 311 317 318 319 319 318 319 315 314 315 318 318 318 318 318 319 319 319 320 318 320 319 320 317 314
301 303 305 304 303 304 305 305 305 307 306 303 308 314 318 318 313 310 313 317 315 316 319 320 323 321 319 315 316 316 315 316 317 319 318 318 318 320 320 320 318 320 318 318 319 317 313
299 300 302 305 304 303 303 304 304 306 306 304 305 312 317 317 311 315 317 315 313 317 310 312 322 319 313 314 316 315 315 316 317 320 318 318 321 320 320 318 318 319 319 318 320 319 317
300 299 300 302 305 303 302 303 304 304 306 305 303 309 315 314 312 311 313 317 319 315 314 319 320 318 315 315 317 314 316 316 315 319 319 317 318 318 317 319 318 319 319 317 318 319 319
300 299 300 301 302 305 302 302 304 303 305 305 304 306 312 314 312 313 313 320 324 317 314 321 319 317 315 316 316 316 315 317 318 320 319 318 319 318 320 319 318 318 316 317 318 320 320
301 300 299 299 301 303 303 301 302 302 302 305 305 306 311 314 313 315 321 325 324 320 321 321 317 316 316 315 316 315 314 314 314 316 317 319 318 320 321 319 320 319 316 318 322 321 319
302 301 300 299 300 301 304 302 300 301 302 304 304 305 311 312 314 312 322 327 319 320 321 315 317 317 317 316 316 315 313 313 313 314 317 319 320 320 320 320 319 320 318 317 320 319 322
303 302 300 300 299 301 304 302 300 301 302 303 305 308 311 312 314 311 321 323 321 320 323 322 317 316 317 315 315 314 313 313 314 313 314 317 319 319 319 320 319 319 317 318 317 323 325
304 302 301 300 299 300 303 303 300 300 302 303 305 310 310 312 313 312 318 318 319 319 320 323 321 317 316 315 314 312 314 313 314 318 315 319 316 317 322 320 319 318 318 316 316 315 318
304 303 301 300 299 300 303 302 300 300 301 302 305 310 312 313 316 311 314 316 316 317 319 321 322 321 317 314 314 314 314 313 312 318 318 318 316 317 320 318 318 318 319 316 316 317 314
304 303 302 300 300 299 303 301 300 298 299 303 306 310 312 313 316 313 313 315 316 316 318 319 322 321 318 315 315 314 314 319 318 317 318 319 318 317 318 317 316 320 318 319 316 312 316
304 304 302 300 300 301 302 301 300 297 299 304 307 311 313 313 313 313 313 315 318 317 316 319 321 322 321 319 318 319 321 321 320 319 317 316 315 317 319 318 316 320 321 318 318 316 316
304 304 301 300 301 301 300 300 299 298 297 301 305 310 313 316 313 314 312 314 317 318 316 315 317 321 322 320 319 321 322 322 320 316 318 317 317 315 314 314 320 319 319 320 318 317 317
305 303 301 300 301 301 300 299 299 297 298 301 306 311 312 313 313 313 313 313 316 316 317 318 316 319 317 320 317 318 321 320 320 319 318 316 316 319 319 316 315 317 316 315 316 316 316
304 303 301 300 301 300 300 299 298 296 299 299 302 305 311 313 314 314 313 313 313 315 315 315 318 319 320 319 317 314 317 318 317 318 317 316 313 314 318 312 312 313 312 313 314 315 315
304 302 300 300 300 300 299 298 298 297 299 301 303 305 313 313 314 313 312 312 313 314 314 314 312 317 317 315 314 314 314 317 320 319 315 313 311 309 312 309 312 315 312 311 312 312 310
302 301 300 299 299 299 298 297 298 298 298 299 304 305 311 311 312 314 312 313 312 312 313 312 316 313 316 317 317 319 313 317 316 316 319 315 310 312 312 312 313 314 311 312 312 314 312
301 300 299 299 299 298 297 298 298 298 297 297 302 304 306 312 314 314 314 313 313 313 312 316 314 317 316 312 310 318 321 320 318 318 313 310 308 314 308 311 313 313 311 312 311 313 312
299 299 299 298 298 297 298 298 297 298 298 299 301 306 305 308 312 315 316 315 312 312 313 318 321 321 317 308 311 313 314 317 318 317 313 311 308 311 304 308 309 308 312 309 313 312 311
298 298 298 297 297 297 297 297 298 298 299 299 300 305 305 306 310 314 314 314 314 313 314 315 322 319 309 317 315 311 311 314 313 314 313 315 313 309 307 307 313 311 312 310 308 311 311
297 297 297 297 297 297 298 298 299 297 299 299 304 305 304 306 309 307 308 309 311 312 315 316 318 320 318 317 312 312 310 306 313 316 315 315 312 313 313 312 310 311 310 310 309 310 309

GFSGBSN_925_thetae_036.txt.gz
Theta_e
309 309 310 309 309 309 309 310 313 315 317 320 322 321 321 320 316 314 312 311 310 310 311 311 308 307 309 307 309 317 314 313 313 313 311 312 314 315 314 311 310 311 311 313 314 323 324
307 308 308 308 309 309 308 308 305 307 313 315 319 321 321 321 319 315 313 311 310 309 311 311 308 307 310 305 312 317 314 313 313 313 311 311 314 314 315 314 315 314 316 322 324 325 325
307 307 308 308 308 309 308 308 308 305 305 313 315 320 320 320 321 316 314 312 310 309 311 311 309 309 311 305 313 317 314 313 312 313 313 313 315 315 315 315 315 316 322 323 325 325 326
306 306 307 307 307 307 308 308 308 307 305 308 313 316 320 320 320 319 314 313 310 309 310 310 309 311 313 308 312 311 315 317 315 313 311 313 314 314 316 314 314 313 314 318 324 325 323
307 306 306 306 307 307 307 308 308 308 306 306 310 314 319 320 319 319 315 313 309 310 312 310 310 313 310 312 313 315 317 318 316 314 312 313 314 314 314 315 313 312 314 317 326 324 323
306 308 306 306 306 306 307 307 308 308 307 307 307 313 316 319 320 319 315 312 310 313 311 311 310 309 307 315 316 318 317 318 316 315 315 315 311 313 312 313 316 317 317 317 317 316 323
303 305 308 305 306 306 306 306 306 307 307 306 305 310 314 318 319 318 315 309 310 313 312 314 308 304 307 315 317 315 315 315 316 316 318 316 315 316 316 315 316 317 318 318 315 315 317
300 302 304 307 305 305 305 306 306 306 307 307 306 307 312 317 319 316 313 310 311 312 315 312 313 310 312 315 319 316 315 315 317 317 318 315 317 316 316 316 318 318 318 317 316 314 315
301 300 299 303 305 306 304 305 306 306 306 307 306 306 312 317 317 315 312 309 314 315 313 312 315 316 316 317 318 317 313 313 316 317 317 317 316 318 318 318 318 317 319 318 318 317 313
301 301 301 300 303 304 306 304 304 305 305 306 306 303 311 316 315 313 310 314 315 315 315 316 319 318 317 317 317 315 314 315 317 316 316 317 316 319 319 319 317 319 316 317 318 316 314
302 302 301 300 300 303 304 305 304 304 304 305 306 303 309 314 311 312 315 312 314 314 311 312 321 318 316 314 314 314 314 315 316 318 317 318 319 319 319 318 317 318 318 318 318 317 316
302 302 302 301 300 300 302 304 304 303 304 304 306 304 306 312 313 314 315 313 316 319 312 312 319 317 314 314 315 313 315 314 314 318 318 316 317 316 316 317 317 318 318 314 316 317 319
303 303 302 302 301 300 301 302 305 302 303 304 305 305 305 311 314 316 315 317 326 318 311 317 320 316 313 314 315 314 315 316 316 318 318 317 318 317 318 319 317 316 314 316 317 319 320
303 303 303 302 301 301 300 302 304 303 302 303 304 305 304 308 314 313 317 323 324 318 317 319 317 315 314 314 314 315 313 315 314 315 316 318 318 318 318 318 317 317 315 316 319 319 317
304 304 303 303 302 301 301 301 302 303 302 303 303 305 306 309 312 312 318 323 318 317 318 315 316 317 315 314 314 314 313 312 313 313 316 317 318 318 319 319 317 318 317 314 318 317 320
304 303 304 304 302 301 300 300 301 304 302 302 302 305 304 308 311 311 317 320 321 316 322 321 316 316 316 314 314 313 312 312 312 313 314 317 316 318 318 319 318 317 315 317 315 322 322
304 304 304 304 303 302 300 300 301 304 301 301 304 306 304 308 312 313 314 316 318 318 319 321 322 319 316 315 313 313 314 313 312 312 313 315 313 314 321 319 317 317 317 314 314 314 317
304 304 303 304 303 302 301 300 301 303 301 301 305 304 308 310 315 315 317 313 314 318 318 319 320 322 318 314 313 313 313 313 311 315 315 316 314 313 317 318 316 315 316 315 316 317 313
302 303 304 304 304 302 301 300 301 303 300 303 305 306 310 310 314 314 314 313 314 317 317 318 320 320 319 315 314 313 313 312 314 314 316 317 315 316 316 315 315 318 317 316 313 311 316
302 303 303 304 304 302 301 300 302 303 301 303 305 306 311 310 311 311 313 313 313 315 315 316 319 320 320 319 314 314 314 319 317 315 316 315 315 315 317 316 315 318 318 316 316 315 315
301 302 301 304 304 302 301 300 301 302 301 302 305 305 310 311 311 312 311 312 313 314 315 315 317 319 319 321 318 319 320 321 318 317 315 314 315 314 314 314 316 317 318 316 317 315 317
301 302 302 302 304 302 301 300 302 301 301 301 304 306 309 309 309 312 314 313 313 314 316 315 317 316 318 320 316 317 320 319 318 317 316 313 316 314 318 315 316 318 315 315 316 316 315
302 302 302 301 304 302 301 301 301 300 301 300 300 302 308 309 310 311 312 312 312 313 314 315 314 314 317 317 316 315 315 316 316 317 316 313 313 313 317 312 313 314 312 313 313 313 314
302 302 302 301 303 302 301 301 301 300 299 299 300 304 309 311 312 311 309 311 312 313 314 315 315 315 313 314 314 314 313 316 317 317 313 310 311 310 311 309 313 314 311 312 312 311 310
303 302 302 302 302 302 301 302 300 300 299 299 300 302 307 309 311 313 311 309 311 312 313 314 313 312 315 317 318 320 314 317 316 314 313 311 309 311 314 312 312 313 311 311 312 311 310
303 303 302 303 302 301 301 301 300 300 300 298 301 301 305 309 310 310 312 310 310 311 311 311 312 313 315 316 312 320 322 319 318 319 312 310 307 312 306 312 314 313 311 309 310 312 310
303 301 303 302 301 301 301 300 299 299 300 297 298 301 303 304 309 311 311 312 310 310 310 311 313 317 314 303 309 312 318 316 320 321 316 311 308 311 303 307 311 310 310 309 312 312 309
301 303 302 301 301 301 301 300 299 299 300 298 297 298 302 304 305 308 312 310 311 311 311 312 318 316 308 315 314 312 307 313 314 316 317 319 315 310 306 307 318 308 311 311 309 309 309
302 301 300 300 300 300 300 299 299 299 299 297 298 298 299 305 307 306 306 306 308 310 310 311 313 316 314 316 309 310 309 304 312 316 312 317 315 315 314 314 311 309 310 308 307 309 309